AirNav   SIMCOM
 
 1546 users online  

2MO7 Fawn Lake Airport
Warrenton, Missouri, USA

GOING TO WARRENTON?


FAA INFORMATION EFFECTIVE 07 DECEMBER 2017

Location

FAA Identifier: 2MO7
Lat/Long: 38-52-00.0000N / 091-05-10.0000W
38-52.000000N / 091-05.166667W
38.8666667 / -91.0861111
(estimated)
Elevation: 750 ft. / 229 m (estimated)
Variation: 02E (1995)
From city: 5 miles NE of WARRENTON, MO
Time zone: UTC -6 (UTC -5 during Daylight Saving Time)
Zip code: 63390

Airport Operations

Airport use: Private use. Permission required prior to landing
Activation date: 07/1997
Control tower: no
ARTCC: KANSAS CITY CENTER
FSS: SAINT LOUIS FLIGHT SERVICE STATION
Attendance: UNATNDD
Segmented circle: no

Airport Communications

WX AWOS-3 at FYG (17 nm S): 121.325 (636-433-5914)

Nearby radio navigation aids

VOR radial/distance  VOR name  Freq  Var
FTZr328/11.7FORISTELL VORTAC110.8005E
STLr270/28.2ST LOUIS VORTAC117.4001E
CSXr281/34.6CARDINAL VOR/DME116.4500E

 
NDB name  Hdg/Dist  Freq  Var  ID
SULLIVAN004/38.035602EUUV ..- ..- ...-

Airport Services

Runway Information

Runway 17/35

Dimensions: 3400 x 50 ft. / 1036 x 15 m
Surface: turf
RUNWAY 17  RUNWAY 35
Traffic pattern: leftleft

Airport Ownership and Management from official FAA records

Ownership: Privately-owned
Owner: C. KOVIAK, INC.
P.O. BOX 1177
LAKE SHERWOOD, MO 63357
Phone 314-398-6399
Manager: CHARLES KOVIAK
P.O. BOX 1177
LAKE SHERWOOD, MO 63357
Phone 314-398-6399

Instrument Procedures

There are no published instrument procedures at 2MO7.

Some nearby airports with instrument procedures:

KFYG - Washington Regional Airport (17 nm S)
KSUS - Spirit of St Louis Airport (24 nm SE)
1H0 - Creve Coeur Airport (28 nm E)
H19 - Bowling Green Municipal Airport (31 nm N)
KSET - St Charles County Smartt Airport (31 nm E)
 
Loc | Ops | Rwys | IFR | FBO | Links
Com | Nav | Svcs | Stats | Notes

Kansas City Aviation Department
 
Area around 2MO7 (Fawn Lake Airport)
 
Road maps at: MapQuest Bing Google
 
Aerial photo
No photo
 
Sectional chart

 
Airport distance calculator
Flying to Fawn Lake Airport? Find the distance to fly.

From to 2MO7

Sunrise and sunset
Times for 11-Dec-2017
 Local
(UTC-6)
 Zulu
(UTC)
Morning civil twilight06:4412:44
Sunrise07:1413:14
Sunset16:4122:41
Evening civil twilight17:1123:11

Current date and time
Zulu (UTC)  11-Dec-2017 18:08:00
Local (UTC-6)  11-Dec-2017 12:08:00
 
METAR
KFYG 
17nm S 
111755Z AUTO 29012G20KT 10SM CLR 14/M05 A2980 RMK AO2
KSUS 
24nm SE 
111754Z 27012G23KT 10SM BKN200 14/M05 A2978 RMK AO2 SLP089 T01441050 10144 21039 56037
KSET 
31nm E 
111754Z AUTO 26017G26KT 10SM CLR 13/M06 A2977 RMK AO2 PK WND 28026/1751 SLP081 T01331061 10133 21039 56045
KSTL 
34nm E 
111751Z 26017G24KT 10SM FEW150 BKN250 14/M05 A2978 RMK AO2 SLP089 T01391050 10144 20006 56040
TAF
KSUS 
24nm SE 
111730Z 1118/1218 25013G23KT P6SM OVC200 FM112000 28016G26KT P6SM FEW250 FM120000 30016G28KT P6SM BKN040 FM120300 31015G27KT P6SM OVC025 FM120800 33016G24KT P6SM SCT030 FM121000 32014G24KT P6SM FEW130
NOTAMs
Click for the latest NOTAMs
NOTAMs are issued by the DoD/FAA and will open in a separate window not controlled by AirNav.

 

 
 

Would you like to see your business listed on this page?

 If your business provides an interesting product or service to pilots, flight crews, aircraft, or users of the Fawn Lake Airport, you should consider listing it here.  To start the listing process, click on the button below
 
Add a business
 

Other Pages about Fawn Lake Airport

Update a link
 
Copyright © AirNav, LLC. All rights reserved. Privacy Policy  Contact